109  
ASUS41 KAKQ 260615  
RWRAKQ  
 
REGIONAL WEATHER ROUNDUP  
NATIONAL WEATHER SERVICE WAKEFIELD VA  
200 AM EDT WED JUL 26 2017  
 
NOTE: "FAIR" INDICATES FEW OR NO CLOUDS BELOW 12,000 FEET WITH NO  
SIGNIFICANT WEATHER AND/OR S TO VISIBILITY
. * = DENOTES  
STATION MAY NOT REPORT PRECIPITATION (E.G., RAIN,SNOW,ETC.),
 
THUNDER OR FOG.  
 
VAZ042-051-052>054-056-260700-  
NORTHERN VIRGINIA  
 
CITY SKY/WX TMP DP RH WIND PRES REMARKS
 
WASH NATIONAL PTCLDY 73 63 70 NE9 30.20S  
DULLES CLEAR 64 60 87 W3 30.21S  
FORT BELVOIR CLEAR 65 62 92 CALM 30.19S  
QUANTICO CLEAR 69 65 86 NW5 30.20S  
FREDERICKSBRG* PTCLDY 68 63 83 CALM 30.18F  
STAFFORD* PTCLDY 65 64 97 N6 30.23S  
WARRENTON PTCLDY 60 57 90 CALM 30.20F FOG  
CULPEPER* CLOUDY 64 62 93 CALM 30.22S  
MANASSAS* MOCLDY 61 60 97 CALM 30.21S  
LEESBURG* CLEAR 64 63 94 CALM 30.22S  
WINCHESTER CLEAR 59 57 94 CALM 30.22S  
FRONT ROYAL* CLEAR 61 59 94 S3 30.22S  
LURAY* CLOUDY 63 59 88 CALM 30.24S  

 
 
VAZ048-049-060>072-079>083-260700-  
CENTRAL AND SOUTH CENTRAL VIRGINIA  
 
CITY SKY/WX TMP DP RH WIND PRES REMARKS
 
RICHMOND MOCLDY 69 63 81 N7 30.17F  
CHESTERFIELD* NOT AVBL  
PETERSBURG* MOCLDY 62 61 96 CALM 30.17F  
HANOVER MOCLDY 67 61 81 CALM 30.19F  
TAPPAHANNOCK* CLEAR 65 65 100 CALM 30.18S  
QUINTON* FAIR 67 66 99 NW3 30.17S  
CHARLOTTSVILLE PTCLDY 66 61 84 CALM 30.21F  
GORDONSVILLE* PTCLDY 64 61 91 CALM 30.20S  
ORANGE* PTCLDY 64 59 82 CALM 30.21S  
LOUISA* CLOUDY 66 59 77 N3 30.20S  
BUMPASS* CLOUDY 69 62 78 CALM 30.19F  
FARMVILLE* CLOUDY 69 58 69 N6 30.18S  
CREWE* FAIR 66 62 87 CALM 30.18F  
FORT PICKETT* FAIR 67 60 76 N6 30.18S  
CHASE CITY* FAIR 69 63 79 CALM 30.18S  
CLARKSVILLE* CLOUDY 73 64 73 NE5 30.17S  
SOUTH HILL* CLEAR 67 65 93 CALM 30.23R  
LAWRENCEVILLE* FAIR 68 65 89 CALM 30.17R  
EMPORIA* CLEAR 64 63 94 NE3 30.17S  

 
 
VAZ088>098-260700-  
SOUTHEAST VIRGINIA  
 
CITY SKY/WX TMP DP RH WIND PRES REMARKS
 
NORFOLK CLEAR 73 69 87 NE7 30.15S  
VIRGINIA BEACH CLEAR 70 65 84 NE5 30.14F  
NORFOLK NAVAL PTCLDY 74 68 81 E7 30.16F  
WEST POINT* PTCLDY 67 64 87 CALM 30.18F  
SALUDA* MOCLDY 73 68 84 CALM 30.16S  
NEWPORT NEWS PTCLDY 68 65 90 CALM 30.15F  
LANGLEY AFB CLEAR 71 67 86 E3 30.15F  
FORT EUSTIS PTCLDY 72 65 79 CALM 30.13F  
WILLIAMSBURG* CLEAR 72 68 88 CALM 30.17F  
HR EXEC AP* FAIR 64 61 88 CALM 30.13F  
FRANKLIN* CLEAR 64 63 94 CALM 30.16S  
US460-WAKEFLD NOT AVBL  

 
 
VAZ020-022-025-037-045-260700-  
WEST CENTRAL AND SOUTHWEST VIRGINIA  
 
CITY SKY/WX TMP DP RH WIND PRES REMARKS
 
STAUNTON* MOCLDY 62 57 84 CALM 30.25F  
WAYNESBORO* PTCLDY 62 59 90 CALM 30.25S  
HOT SPRINGS VA CLEAR 57 54 88 E7 30.32S  
LYNCHBURG PTCLDY 68 58 70 NE7 30.21F  
DANVILLE MOCLDY 72 64 76 NE10 30.16S  
SOUTH BOSTON* CLOUDY 73 62 68 NE6 30.17S  
MARTINSVILLE MOCLDY 69 62 79 N5 30.21S  
ROANOKE MOCLDY 70 61 73 SE7 30.23S  
BLACKSBURG CLEAR 68 59 73 E6 30.27R  
DUBLIN* CLEAR 64 56 75 CALM 30.25F  
MARION* CLEAR 63 58 84 CALM 30.27F  
HILLSVILLE* MOCLDY 66 55 67 CALM 30.24F  
RICHLANDS* FAIR 67 58 73 NE6 30.23S  
WISE* CLEAR 64 64 100 CALM 30.24F  
ABINGDON* CLEAR 71 64 77 E7 30.19F  

 
 
MDZ021>025-VAZ099-100-260700-  
SOUTHERN MARYLAND AND THE DELMARVA PENINSULA  
 
CITY SKY/WX TMP DP RH WIND PRES REMARKS
 
PATUXENT RIVER MOCLDY 73 69 87 E7 30.17S  
BAY BRIDGE APT MOCLDY 72 64 78 SE5 30.19R  
LEONARDTOWN CLEAR 68 63 83 CALM 30.19S  
DOVER HVY RAIN 68 68 100 SE7 30.18S  
GEORGETOWN CLOUDY 71 65 81 NE3 30.19S  
EASTON MOCLDY 69 66 90 CALM 30.23R  
CAMBRIDGE CLOUDY 68 66 94 CALM 30.18S  
SALISBURY MOCLDY 68 67 96 CALM 30.18S  
OCEAN CITY PTCLDY 71 67 87 E5 30.17F  
WALLOPS ISLAND CLEAR 71 68 90 E5 30.17S  
ACCOMACK* CLEAR 68 67 95 CALM 30.17S  

 
 
NCZ012>017-030>032-260700-  
NORTH CENTRAL AND EASTERN NORTH CAROLINA  
 
CITY SKY/WX TMP DP RH WIND PRES REMARKS
 
ROANOKE RAPIDS FAIR 68 64 88 CALM 30.16R  
RALEIGH MOCLDY 78 70 76 E13 30.14R  
ELIZABETH CITY CLEAR 72 68 87 E6 30.14F  
AHOSKIE* N/A 67 66 96 CALM 30.15S  
EDENTON* CLEAR 70 66 88 CALM 30.14F  
CURRITUCK* CLEAR 74 67 79 NE7 30.15S  
KILL DEVIL HLS CLEAR 74 65 74 CALM 30.13S  
MANTEO CLEAR 74 67 76 NE12 30.13F  
CAPE HATTERAS CLOUDY 76 69 79 E7 30.12S  
TARBORO* NOT AVBL  
GOLDSBORO CLOUDY 76 70 81 E9 30.11S  
WASHINGTON PTCLDY 71 66 85 E3 30.13F  
GREENVILLE CLEAR 72 66 83 CALM 30.14F  
NEW BERN MOCLDY 76 69 79 E8 30.13S  
WILMINGTON CLOUDY 78 77 96 NE8 30.08S  

 
 
VAZ048-260700-  
ELSEWHERE  
 
CITY SKY/WX TMP DP RH WIND PRES REMARKS
 
HARRISBURG PA MOCLDY 68 59 73 N3 30.21S  
BALTIMORE PTCLDY 64 62 93 NW3 30.19S  
ANNAPOLIS CLEAR 73 69 87 N7 30.18S  
ANDREWS AFB CLEAR 65 61 85 N6 30.19S  
PHILADELPHIA CLOUDY 68 63 84 NE6 30.22S  
HENDERSON NC MOCLDY 71 62 74 E7 30.17S  
GREENSBORO PTCLDY 72 68 87 NE9 30.15R  
ROCKY MOUNT CLOUDY 73 68 84 CALM 30.14S  

 
 
VAZ100-260700-  
MARINE  
 
STATION/POSITION TIME TEMP WIND PRES WAVE SWELL
 
AIR SEA DIR/SP/G HT/PER HT/PER  
(UTC) (F) (DEG/KT/KT) (MB) (FT/S) (FT/S)  
BRANDYWINE LGT 0536 80/ 11/ 13 1022.6F  
CAPE MAY NJ 0536 80/ 3/ 5 1021.8S  
LEWES DE 0536 90/ 9/ 11 1021.8S  
15NM E FENWICK I 0450 74 75 60/ 8/ 12 1022.2 4/ 6 3/ 6  
OCEAN-CITY-INLET 0536 80/ 4/ 6 1022.2S  
WACHAPREAGUE VA 0536 70/ 5/ 7 1021.4S  
THOMAS POINT MD 0600 74 81 70/ 5/ 6 N/A  
GOOSES REEF MD 0600 75 82 100/ 6/ 10 1022.5 1/ 2  
COVE POINT MD 0536 120/ 7/ 9 1022.5S  
SOLOMONS ISLAND 0536 40/ 5/ 7 N/A  
BISHOPS HEAD MD 0536 100/ 9/ 12 1021.8S  
PINEY POINT MD 0542 60/ 5/ 6 N/A  
CAMBRIDGE MD 0536 1022.9R  
LEWISETTA VA 0536 240/ 2/ 3 1021.4S  
RAPPAHANNOCK LGT 0536 80/ 10/ 11 1022.1R  
STINGRAY PT 0550 76 120/ 10/ 12 1021.2S  
YORK RVR RNG VA 0536 110/ 11/ 13 1021.4F  
YORKTOWN VA 0536 140/ 5/ 9 1020.9F  
JAMESTOWN VA 0600 86 70/ 4/ 4 N/A 0  
DOMINION TERM VA 0536 340/ 2/ 4 1021.1F  
KIPTOPEKE VA 0536 70/ 3/ 5 N/A  
CHES BAY BRIDGE 0536 60/ 11/ 12 1020.8F  
CAPE HENRY VA 0536 50/ 9/ 10 N/A  
WILLOUBY STN VA 0536 70/ 9/ 10 1020.9F  
S CRANEY ISL VA 0536 70/ 5/ 9 1020.8F  
CAPE HENRY BUOY 0600 71 N/A 2/ 5  
1ST LANDING BUOY 0600 72 74 1020.9 1/ 4  
64NM E OF VA BCH 0550 76 78 50/ 14/ 16 1020.9F 3/11 2/11  
DUCK PIER NC 0536 40/ 12/ 13 1020.1F  
44100 DUCK FRF 0505 77 N/A 3/ 5  
44056 DUCK FRF 0600 74 N/A 2/ 5  
OREGON INLET NC 0536 20/ 8/ 11 1020.2F  
HATTERAS NC 0542 70/ 8/ 13 1019.8F  
DIAMOND SHLS NC 0550 80 84 40/ 16/ 17 1019.4F 3/ 7 2/ 7  
CAPE LOOKOUT NC 0600 79 50/ 18/ 20 1019.2F  

 
 
 
CLICK HERE TO GO TO PREVIOUS BULLETINS.

The Nexlab VA Page
The Nexlab NC Page
The Nexlab MD Page Main Text Page